Year,Month,Day,Hour,Minute,Value (Times are PST for temperature in C)
2008,02,18,09,02,3.20
2008,02,18,09,03,3.20
2008,02,18,09,04,3.30
2008,02,18,09,05,3.30
2008,02,18,09,06,3.30
2008,02,18,09,07,3.30
2008,02,18,09,08,3.40
2008,02,18,09,09,3.40
2008,02,18,09,10,3.50
2008,02,18,09,11,3.50
2008,02,18,09,12,3.60
2008,02,18,09,13,3.60
2008,02,18,09,14,3.70
2008,02,18,09,15,3.70
2008,02,18,09,16,3.80
2008,02,18,09,17,3.80
2008,02,18,09,18,3.90
2008,02,18,09,19,3.90
2008,02,18,09,20,4.00
2008,02,18,09,21,4.10
2008,02,18,09,22,4.20
2008,02,18,09,23,4.30
2008,02,18,09,24,4.40
2008,02,18,09,25,4.50
2008,02,18,09,26,4.50
2008,02,18,09,27,4.60
2008,02,18,09,28,4.60
2008,02,18,09,29,4.60
2008,02,18,09,30,4.60
2008,02,18,09,31,4.70
2008,02,18,09,32,4.70
2008,02,18,09,33,4.80
2008,02,18,09,34,4.80
2008,02,18,09,35,4.90
2008,02,18,09,36,4.90
2008,02,18,09,37,4.90
2008,02,18,09,38,5.10
2008,02,18,09,39,5.10
2008,02,18,09,40,5.10
2008,02,18,09,41,5.20
2008,02,18,09,42,5.30
2008,02,18,09,43,5.40
2008,02,18,09,44,5.40
2008,02,18,09,45,5.50
2008,02,18,09,46,5.60
2008,02,18,09,47,5.60
2008,02,18,09,48,5.60
2008,02,18,09,49,5.60
2008,02,18,09,50,5.60
2008,02,18,09,51,5.60
2008,02,18,09,52,5.70
2008,02,18,09,53,5.70
2008,02,18,09,54,5.70
2008,02,18,09,55,5.70
2008,02,18,09,56,5.70
2008,02,18,09,57,5.80
2008,02,18,09,58,5.90
2008,02,18,09,59,5.90
2008,02,18,10,00,6.10
2008,02,18,10,01,6.20
2008,02,18,10,02,6.30
2008,02,18,10,03,6.40
2008,02,18,10,04,6.50
2008,02,18,10,05,6.60
2008,02,18,10,06,6.70
2008,02,18,10,07,6.80
2008,02,18,10,08,6.80
2008,02,18,10,09,6.80
2008,02,18,10,10,6.80
2008,02,18,10,11,6.90
2008,02,18,10,12,6.90
2008,02,18,10,13,7.00
2008,02,18,10,14,7.00
2008,02,18,10,15,7.10
2008,02,18,10,16,7.20
2008,02,18,10,17,7.30
2008,02,18,10,18,7.30
2008,02,18,10,19,7.40
2008,02,18,10,20,7.50
2008,02,18,10,21,7.50
2008,02,18,10,22,7.60
2008,02,18,10,23,7.60
2008,02,18,10,24,7.60
2008,02,18,10,25,7.60
2008,02,18,10,26,7.50
2008,02,18,10,27,7.40
2008,02,18,10,28,7.40
2008,02,18,10,29,7.30
2008,02,18,10,30,7.30
2008,02,18,10,31,7.20
2008,02,18,10,32,7.20
2008,02,18,10,33,7.20
2008,02,18,10,34,7.20
2008,02,18,10,35,7.20
2008,02,18,10,36,7.30
2008,02,18,10,37,7.30
2008,02,18,10,38,7.30
2008,02,18,10,39,7.30
2008,02,18,10,40,7.30
2008,02,18,10,41,7.40
2008,02,18,10,42,7.50
2008,02,18,10,43,7.50
2008,02,18,10,44,7.40
2008,02,18,10,45,7.40
2008,02,18,10,46,7.30
2008,02,18,10,47,7.40
2008,02,18,10,48,7.40
2008,02,18,10,49,7.30
2008,02,18,10,50,7.30
2008,02,18,10,51,7.30
2008,02,18,10,52,7.30
2008,02,18,10,53,7.30
2008,02,18,10,54,7.30
2008,02,18,10,55,7.30
2008,02,18,10,56,7.40
2008,02,18,10,57,7.40
2008,02,18,10,58,7.40
2008,02,18,10,59,7.30
2008,02,18,11,00,7.30
2008,02,18,11,01,7.40
2008,02,18,11,02,7.50
2008,02,18,11,03,7.50
2008,02,18,11,04,7.50
2008,02,18,11,05,7.60
2008,02,18,11,06,7.70
2008,02,18,11,07,7.70
2008,02,18,11,08,7.80
2008,02,18,11,09,7.80
2008,02,18,11,10,7.90
2008,02,18,11,11,7.90
2008,02,18,11,12,8.00
2008,02,18,11,13,8.00
2008,02,18,11,14,8.00
2008,02,18,11,15,8.10
2008,02,18,11,16,8.10
2008,02,18,11,17,8.20
2008,02,18,11,18,8.20
2008,02,18,11,19,8.20
2008,02,18,11,20,8.30
2008,02,18,11,21,8.40
2008,02,18,11,22,8.40
2008,02,18,11,23,8.50
2008,02,18,11,24,8.60
2008,02,18,11,25,8.70
2008,02,18,11,26,8.70
2008,02,18,11,27,8.80
2008,02,18,11,28,8.90
2008,02,18,11,29,9.00
2008,02,18,11,30,9.00
2008,02,18,11,31,9.10
2008,02,18,11,32,9.10
2008,02,18,11,33,9.00
2008,02,18,11,34,9.00
2008,02,18,11,35,9.00
2008,02,18,11,36,9.10
2008,02,18,11,37,9.10
2008,02,18,11,38,9.20
2008,02,18,11,39,9.20
2008,02,18,11,40,9.20
2008,02,18,11,41,9.20
2008,02,18,11,42,9.20
2008,02,18,11,43,9.20
2008,02,18,11,44,9.20
2008,02,18,11,45,9.20
2008,02,18,11,46,9.20
2008,02,18,11,47,9.20
2008,02,18,11,48,9.20
2008,02,18,11,49,9.40
2008,02,18,11,50,9.40
2008,02,18,11,51,9.40
2008,02,18,11,52,9.40
2008,02,18,11,53,9.40
2008,02,18,11,54,9.40
2008,02,18,11,55,9.40
2008,02,18,11,56,9.50
2008,02,18,11,57,9.50
2008,02,18,11,58,9.50
2008,02,18,11,59,9.50
2008,02,18,12,00,9.40
2008,02,18,12,01,9.40
2008,02,18,12,02,9.40
2008,02,18,12,03,9.40
2008,02,18,12,04,9.30
2008,02,18,12,05,9.20
2008,02,18,12,06,9.20
2008,02,18,12,07,9.20
2008,02,18,12,08,9.30
2008,02,18,12,09,9.20
2008,02,18,12,10,9.20
2008,02,18,12,11,9.20
2008,02,18,12,12,9.30
2008,02,18,12,13,9.20
2008,02,18,12,14,9.20
2008,02,18,12,15,9.20
2008,02,18,12,16,9.20
2008,02,18,12,17,9.20
2008,02,18,12,18,9.20
2008,02,18,12,19,9.30
2008,02,18,12,20,9.40
2008,02,18,12,21,9.40
2008,02,18,12,22,9.30
2008,02,18,12,23,9.30
2008,02,18,12,24,9.30
2008,02,18,12,25,9.20
2008,02,18,12,26,9.20
2008,02,18,12,27,9.30
2008,02,18,12,28,9.40
2008,02,18,12,29,9.40
2008,02,18,12,30,9.40
2008,02,18,12,31,9.40
2008,02,18,12,32,9.40
2008,02,18,12,33,9.40
2008,02,18,12,34,9.40
2008,02,18,12,35,9.40
2008,02,18,12,36,9.50
2008,02,18,12,37,9.50
2008,02,18,12,38,9.60
2008,02,18,12,39,9.60
2008,02,18,12,40,9.70
2008,02,18,12,41,9.60
2008,02,18,12,42,9.60
2008,02,18,12,43,9.60
2008,02,18,12,44,9.60
2008,02,18,12,45,9.60
2008,02,18,12,46,9.60
2008,02,18,12,47,9.50
2008,02,18,12,48,9.50
2008,02,18,12,49,9.50
2008,02,18,12,50,9.50
2008,02,18,12,51,9.50
2008,02,18,12,52,9.50
2008,02,18,12,53,9.60
2008,02,18,12,54,9.60
2008,02,18,12,55,9.70
2008,02,18,12,56,9.70
2008,02,18,12,57,9.70
2008,02,18,12,58,9.70
2008,02,18,12,59,9.80
2008,02,18,13,00,9.80
2008,02,18,13,01,9.80
2008,02,18,13,02,9.80
2008,02,18,13,03,9.90
2008,02,18,13,04,9.90
2008,02,18,13,05,9.90
2008,02,18,13,06,9.90
2008,02,18,13,07,9.90
2008,02,18,13,08,9.90
2008,02,18,13,09,9.90
2008,02,18,13,10,9.80
2008,02,18,13,11,9.80
2008,02,18,13,12,9.80
2008,02,18,13,13,9.90
2008,02,18,13,14,9.90
2008,02,18,13,15,9.90
2008,02,18,13,16,9.90
2008,02,18,13,17,9.90
2008,02,18,13,18,9.90
2008,02,18,13,19,10.00
2008,02,18,13,20,10.10
2008,02,18,13,21,10.10
2008,02,18,13,22,10.10
2008,02,18,13,23,10.10
2008,02,18,13,24,10.20
2008,02,18,13,25,10.20
2008,02,18,13,26,10.20
2008,02,18,13,27,10.30
2008,02,18,13,28,10.30
2008,02,18,13,29,10.30
2008,02,18,13,30,10.30
2008,02,18,13,31,10.30
2008,02,18,13,32,10.30
2008,02,18,13,33,10.30
2008,02,18,13,34,10.30
2008,02,18,13,35,10.40
2008,02,18,13,36,10.40
2008,02,18,13,37,10.40
2008,02,18,13,38,10.40
2008,02,18,13,39,10.40
2008,02,18,13,40,10.40
2008,02,18,13,41,10.50
2008,02,18,13,42,10.60
2008,02,18,13,43,10.70
2008,02,18,13,44,10.80
2008,02,18,13,45,10.80
2008,02,18,13,46,10.80
2008,02,18,13,47,10.90
2008,02,18,13,48,10.90
2008,02,18,13,49,10.80
2008,02,18,13,50,10.70
2008,02,18,13,51,10.60
2008,02,18,13,52,10.50
2008,02,18,13,53,10.40
2008,02,18,13,54,10.40
2008,02,18,13,55,10.40
2008,02,18,13,56,10.60
2008,02,18,13,57,10.60
2008,02,18,13,58,10.60
2008,02,18,13,59,10.70
2008,02,18,14,00,10.80
2008,02,18,14,01,10.90
2008,02,18,14,02,10.90
2008,02,18,14,03,10.80
2008,02,18,14,04,10.70
2008,02,18,14,05,10.60
2008,02,18,14,06,10.60
2008,02,18,14,07,10.40
2008,02,18,14,08,10.30
2008,02,18,14,09,10.30
2008,02,18,14,10,10.30
2008,02,18,14,11,10.40
2008,02,18,14,12,10.40
2008,02,18,14,13,10.40
2008,02,18,14,14,10.40
2008,02,18,14,15,10.40
2008,02,18,14,16,10.40
2008,02,18,14,17,10.30
2008,02,18,14,18,10.30
2008,02,18,14,19,10.30
2008,02,18,14,20,10.30
2008,02,18,14,21,10.20
2008,02,18,14,22,10.20
2008,02,18,14,23,10.30
2008,02,18,14,24,10.30
2008,02,18,14,25,10.30
2008,02,18,14,26,10.20
2008,02,18,14,27,10.20
2008,02,18,14,28,10.10
2008,02,18,14,29,10.10
2008,02,18,14,30,10.10
2008,02,18,14,31,10.10
2008,02,18,14,32,10.00
2008,02,18,14,33,10.00
2008,02,18,14,34,9.90
2008,02,18,14,35,9.90
2008,02,18,14,36,9.80
2008,02,18,14,37,9.80
2008,02,18,14,38,9.80
2008,02,18,14,39,9.80
2008,02,18,14,40,9.90
2008,02,18,14,41,9.90
2008,02,18,14,42,9.90
2008,02,18,14,43,10.00
2008,02,18,14,44,10.00
2008,02,18,14,45,10.10
2008,02,18,14,46,10.10
2008,02,18,14,47,10.00
2008,02,18,14,48,9.90
2008,02,18,14,49,9.90
2008,02,18,14,50,9.90
2008,02,18,14,51,9.90
2008,02,18,14,52,10.10
2008,02,18,14,53,10.10
2008,02,18,14,54,10.10
2008,02,18,14,55,10.10
2008,02,18,14,56,10.10
2008,02,18,14,57,10.10
2008,02,18,14,58,10.10
2008,02,18,14,59,10.10
2008,02,18,15,00,10.10
2008,02,18,15,01,10.10
2008,02,18,15,02,10.10
2008,02,18,15,03,10.10
2008,02,18,15,04,10.10
2008,02,18,15,05,10.10
2008,02,18,15,06,10.10
2008,02,18,15,07,10.20
2008,02,18,15,08,10.20
2008,02,18,15,09,10.30
2008,02,18,15,10,10.30
2008,02,18,15,11,10.30
2008,02,18,15,12,10.30
2008,02,18,15,13,10.40
2008,02,18,15,14,10.40
2008,02,18,15,15,10.40
2008,02,18,15,16,10.40
2008,02,18,15,17,10.40
2008,02,18,15,18,10.40
2008,02,18,15,19,10.40
2008,02,18,15,20,10.30
2008,02,18,15,21,10.30
2008,02,18,15,22,10.30
2008,02,18,15,23,10.20
2008,02,18,15,24,10.20
2008,02,18,15,25,10.20
2008,02,18,15,26,10.20
2008,02,18,15,27,10.10
2008,02,18,15,28,10.10
2008,02,18,15,29,10.10
2008,02,18,15,30,10.10
2008,02,18,15,31,10.10
2008,02,18,15,32,10.20
2008,02,18,15,33,10.20
2008,02,18,15,34,10.20
2008,02,18,15,35,10.20
2008,02,18,15,36,10.20
2008,02,18,15,37,10.20
2008,02,18,15,38,10.20
2008,02,18,15,39,10.10
2008,02,18,15,40,10.00
2008,02,18,15,41,9.90
2008,02,18,15,42,9.90
2008,02,18,15,43,9.80
2008,02,18,15,44,9.70
2008,02,18,15,45,9.60
2008,02,18,15,46,9.50
2008,02,18,15,47,9.40
2008,02,18,15,48,9.30
2008,02,18,15,49,9.30
2008,02,18,15,50,9.30
2008,02,18,15,51,9.20
2008,02,18,15,52,9.20
2008,02,18,15,53,9.20
2008,02,18,15,54,9.20
2008,02,18,15,55,9.20
2008,02,18,15,56,9.20
2008,02,18,15,57,9.10
2008,02,18,15,58,9.10
2008,02,18,15,59,9.10
2008,02,18,16,00,9.10
2008,02,18,16,01,9.10
2008,02,18,16,02,9.10
2008,02,18,16,03,9.10
2008,02,18,16,04,9.10
2008,02,18,16,05,9.10
2008,02,18,16,06,9.10
2008,02,18,16,07,9.10
2008,02,18,16,08,9.10
2008,02,18,16,09,9.10
2008,02,18,16,10,9.10
2008,02,18,16,11,9.10
2008,02,18,16,12,9.20
2008,02,18,16,13,9.20
2008,02,18,16,14,9.20
2008,02,18,16,15,9.20
2008,02,18,16,16,9.30
2008,02,18,16,17,9.30
2008,02,18,16,18,9.30
2008,02,18,16,19,9.40
2008,02,18,16,20,9.40
2008,02,18,16,21,9.40
2008,02,18,16,22,9.40
2008,02,18,16,23,9.40
2008,02,18,16,24,9.40
2008,02,18,16,25,9.40
2008,02,18,16,26,9.40
2008,02,18,16,27,9.40
2008,02,18,16,28,9.40
2008,02,18,16,29,9.30
2008,02,18,16,30,9.30
2008,02,18,16,31,9.30
2008,02,18,16,32,9.20
2008,02,18,16,33,9.20
2008,02,18,16,34,9.20
2008,02,18,16,35,9.20
2008,02,18,16,36,9.10
2008,02,18,16,37,9.00
2008,02,18,16,38,8.90
2008,02,18,16,39,8.90
2008,02,18,16,40,8.80
2008,02,18,16,41,8.70
2008,02,18,16,42,8.70
2008,02,18,16,43,8.70
2008,02,18,16,44,8.60
2008,02,18,16,45,8.50
2008,02,18,16,46,8.50
2008,02,18,16,47,8.40
2008,02,18,16,48,8.40
2008,02,18,16,49,8.30
2008,02,18,16,50,8.20
2008,02,18,16,51,8.20
2008,02,18,16,52,8.20
2008,02,18,16,53,8.10
2008,02,18,16,54,8.10
2008,02,18,16,55,8.00
2008,02,18,16,56,8.00
2008,02,18,16,57,8.00
2008,02,18,16,58,7.90
2008,02,18,16,59,7.90
2008,02,18,17,00,7.80
2008,02,18,17,01,7.80
2008,02,18,17,02,7.80
2008,02,18,17,03,7.80
2008,02,18,17,04,7.80
2008,02,18,17,05,7.80
2008,02,18,17,06,7.80
2008,02,18,17,07,7.70
2008,02,18,17,08,7.70
2008,02,18,17,09,7.70
2008,02,18,17,10,7.60
2008,02,18,17,11,7.60
2008,02,18,17,12,7.50
2008,02,18,17,13,7.50
2008,02,18,17,14,7.40
2008,02,18,17,15,7.40
2008,02,18,17,16,7.30
2008,02,18,17,17,7.30
2008,02,18,17,18,7.30
2008,02,18,17,19,7.30
2008,02,18,17,20,7.30
2008,02,18,17,21,7.30
2008,02,18,17,22,7.20
2008,02,18,17,23,7.20
2008,02,18,17,24,7.20
2008,02,18,17,25,7.10
2008,02,18,17,26,7.10
2008,02,18,17,27,7.00
2008,02,18,17,28,7.00
2008,02,18,17,29,6.90
2008,02,18,17,30,6.90
2008,02,18,17,31,6.80
2008,02,18,17,32,6.80
2008,02,18,17,33,6.80
2008,02,18,17,34,6.80
2008,02,18,17,35,6.70
2008,02,18,17,36,6.70
2008,02,18,17,37,6.70
2008,02,18,17,38,6.70
2008,02,18,17,39,6.60
2008,02,18,17,40,6.60
2008,02,18,17,41,6.60
2008,02,18,17,42,6.60
2008,02,18,17,43,6.50
2008,02,18,17,44,6.40
2008,02,18,17,45,6.40
2008,02,18,17,46,6.30
2008,02,18,17,47,6.30
2008,02,18,17,48,6.30
2008,02,18,17,49,6.20
2008,02,18,17,50,6.20
2008,02,18,17,51,6.20
2008,02,18,17,52,6.20
2008,02,18,17,53,6.20
2008,02,18,17,54,6.10
2008,02,18,17,55,6.10
2008,02,18,17,56,6.10
2008,02,18,17,57,6.00
2008,02,18,17,58,6.00
2008,02,18,17,59,6.00
2008,02,18,18,00,5.90
2008,02,18,18,01,5.90
2008,02,18,18,02,5.90
2008,02,18,18,03,5.80
2008,02,18,18,04,5.80
2008,02,18,18,05,5.80
2008,02,18,18,06,5.70
2008,02,18,18,07,5.70
2008,02,18,18,08,5.70
2008,02,18,18,09,5.70
2008,02,18,18,10,5.60
2008,02,18,18,11,5.60
2008,02,18,18,12,5.50
2008,02,18,18,13,5.50
2008,02,18,18,14,5.50
2008,02,18,18,15,5.40
2008,02,18,18,16,5.40
2008,02,18,18,17,5.30
2008,02,18,18,18,5.30
2008,02,18,18,19,5.30
2008,02,18,18,20,5.20
2008,02,18,18,21,5.20
2008,02,18,18,22,5.10
2008,02,18,18,23,5.10
2008,02,18,18,24,5.10
2008,02,18,18,25,5.10
2008,02,18,18,26,5.10
2008,02,18,18,27,5.00
2008,02,18,18,28,4.90
2008,02,18,18,29,4.90
2008,02,18,18,30,4.90
2008,02,18,18,31,4.90
2008,02,18,18,32,4.90
2008,02,18,18,33,4.80
2008,02,18,18,34,4.80
2008,02,18,18,35,4.80
2008,02,18,18,36,4.70
2008,02,18,18,37,4.70
2008,02,18,18,38,4.70
2008,02,18,18,39,4.60
2008,02,18,18,40,4.60
2008,02,18,18,41,4.60
2008,02,18,18,42,4.60
2008,02,18,18,43,4.60
2008,02,18,18,44,4.50
2008,02,18,18,45,4.50
2008,02,18,18,46,4.50
2008,02,18,18,47,4.50
2008,02,18,18,48,4.40
2008,02,18,18,49,4.40
2008,02,18,18,50,4.30
2008,02,18,18,51,4.30
2008,02,18,18,52,4.30
2008,02,18,18,53,4.20
2008,02,18,18,54,4.20
2008,02,18,18,55,4.20
2008,02,18,18,56,4.20
2008,02,18,18,57,4.10
2008,02,18,18,58,4.10
2008,02,18,18,59,4.00
2008,02,18,19,00,4.00
2008,02,18,19,01,4.00
2008,02,18,19,02,3.90
2008,02,18,19,03,3.90
2008,02,18,19,04,3.80
2008,02,18,19,05,3.80
2008,02,18,19,06,3.80
2008,02,18,19,07,3.80
2008,02,18,19,08,3.80
2008,02,18,19,09,3.80
2008,02,18,19,10,3.70
2008,02,18,19,11,3.70
2008,02,18,19,12,3.70
2008,02,18,19,13,3.60
2008,02,18,19,14,3.60
2008,02,18,19,15,3.60
2008,02,18,19,16,3.60
2008,02,18,19,17,3.50
2008,02,18,19,18,3.50
2008,02,18,19,19,3.50
2008,02,18,19,20,3.40
2008,02,18,19,21,3.40
2008,02,18,19,22,3.40
2008,02,18,19,23,3.30
2008,02,18,19,24,3.30
2008,02,18,19,25,3.30
2008,02,18,19,26,3.30
2008,02,18,19,27,3.30
2008,02,18,19,28,3.30
2008,02,18,19,29,3.30
2008,02,18,19,30,3.30
2008,02,18,19,31,3.30
2008,02,18,19,32,3.20
2008,02,18,19,33,3.20
2008,02,18,19,34,3.20
2008,02,18,19,35,3.20
2008,02,18,19,36,3.20
2008,02,18,19,37,3.20
2008,02,18,19,38,3.20
2008,02,18,19,39,3.10
2008,02,18,19,40,3.10
2008,02,18,19,41,3.10
2008,02,18,19,42,3.10
2008,02,18,19,43,3.10
2008,02,18,19,44,3.10
2008,02,18,19,45,3.10
2008,02,18,19,46,3.10
2008,02,18,19,47,2.90
2008,02,18,19,48,2.90
2008,02,18,19,49,2.90
2008,02,18,19,50,2.90
2008,02,18,19,51,2.90
2008,02,18,19,52,2.90
2008,02,18,19,53,2.90
2008,02,18,19,54,2.80
2008,02,18,19,55,2.80
2008,02,18,19,56,2.80
2008,02,18,19,57,2.80
2008,02,18,19,58,2.80
2008,02,18,19,59,2.70
2008,02,18,20,00,2.70
2008,02,18,20,01,2.70
2008,02,18,20,02,2.70
2008,02,18,20,03,2.70
2008,02,18,20,04,2.70
2008,02,18,20,05,2.70
2008,02,18,20,06,2.60
2008,02,18,20,07,2.60
2008,02,18,20,08,2.60
2008,02,18,20,09,2.60
2008,02,18,20,10,2.50
2008,02,18,20,11,2.50
2008,02,18,20,12,2.50
2008,02,18,20,13,2.40
2008,02,18,20,14,2.40
2008,02,18,20,15,2.40
2008,02,18,20,16,2.40
2008,02,18,20,17,2.30
2008,02,18,20,18,2.30
2008,02,18,20,19,2.30
2008,02,18,20,20,2.30
2008,02,18,20,21,2.20
2008,02,18,20,22,2.20
2008,02,18,20,23,2.20
2008,02,18,20,24,2.20
2008,02,18,20,25,2.20
2008,02,18,20,26,2.20
2008,02,18,20,27,2.20
2008,02,18,20,28,2.10
2008,02,18,20,29,2.10
2008,02,18,20,30,2.10
2008,02,18,20,31,2.10
2008,02,18,20,32,2.00
2008,02,18,20,33,2.00
2008,02,18,20,34,2.00
2008,02,18,20,35,2.00
2008,02,18,20,36,2.00
2008,02,18,20,37,2.00
2008,02,18,20,38,1.90
2008,02,18,20,39,1.90
2008,02,18,20,40,1.90
2008,02,18,20,41,1.90
2008,02,18,20,42,1.90
2008,02,18,20,43,1.80
2008,02,18,20,44,1.80
2008,02,18,20,45,1.80
2008,02,18,20,46,1.80
2008,02,18,20,47,1.80
2008,02,18,20,48,1.80
2008,02,18,20,49,1.80
2008,02,18,20,50,1.80
2008,02,18,20,51,1.80
2008,02,18,20,52,1.80
2008,02,18,20,53,1.80
2008,02,18,20,54,1.80
2008,02,18,20,55,1.80
2008,02,18,20,56,1.80
2008,02,18,20,57,1.80
2008,02,18,20,58,1.80
2008,02,18,20,59,1.80
2008,02,18,21,00,1.80
2008,02,18,21,01,1.70
2008,02,18,21,02,1.70
2008,02,18,21,03,1.70
2008,02,18,21,04,1.70
2008,02,18,21,05,1.70
2008,02,18,21,06,1.70
2008,02,18,21,07,1.60
2008,02,18,21,08,1.60
2008,02,18,21,09,1.60
2008,02,18,21,10,1.60
2008,02,18,21,11,1.60
2008,02,18,21,12,1.60
2008,02,18,21,13,1.60
2008,02,18,21,14,1.60
2008,02,18,21,15,1.60
2008,02,18,21,16,1.60
2008,02,18,21,17,1.60
2008,02,18,21,18,1.50
2008,02,18,21,19,1.50
2008,02,18,21,20,1.50
2008,02,18,21,21,1.50
2008,02,18,21,22,1.40
2008,02,18,21,23,1.40
2008,02,18,21,24,1.40
2008,02,18,21,25,1.30
2008,02,18,21,26,1.30
2008,02,18,21,27,1.30
2008,02,18,21,28,1.30
2008,02,18,21,29,1.30
2008,02,18,21,30,1.30
2008,02,18,21,31,1.30
2008,02,18,21,32,1.30
2008,02,18,21,33,1.30
2008,02,18,21,34,1.30
2008,02,18,21,35,1.30
2008,02,18,21,36,1.30
2008,02,18,21,37,1.30
2008,02,18,21,38,1.30
2008,02,18,21,39,1.30
2008,02,18,21,40,1.30
2008,02,18,21,41,1.30
2008,02,18,21,42,1.30
2008,02,18,21,43,1.20
2008,02,18,21,44,1.20
2008,02,18,21,45,1.20
2008,02,18,21,46,1.20
2008,02,18,21,47,1.20
2008,02,18,21,48,1.20
2008,02,18,21,49,1.20
2008,02,18,21,50,1.10
2008,02,18,21,51,1.10
2008,02,18,21,52,1.10
2008,02,18,21,53,1.10
2008,02,18,21,54,1.10
2008,02,18,21,55,1.10
2008,02,18,21,56,1.10
2008,02,18,21,57,1.10
2008,02,18,21,58,1.00
2008,02,18,21,59,1.00
2008,02,18,22,00,1.00
2008,02,18,22,01,0.90
2008,02,18,22,02,0.90
2008,02,18,22,03,0.90
2008,02,18,22,04,0.90
2008,02,18,22,05,0.90
2008,02,18,22,06,0.80
2008,02,18,22,07,0.80
2008,02,18,22,08,0.80
2008,02,18,22,09,0.80
2008,02,18,22,10,0.80
2008,02,18,22,11,0.80
2008,02,18,22,12,0.80
2008,02,18,22,13,0.80
2008,02,18,22,14,0.80
2008,02,18,22,15,0.80
2008,02,18,22,16,0.80
2008,02,18,22,17,0.80
2008,02,18,22,18,0.80
2008,02,18,22,19,0.70
2008,02,18,22,20,0.70
2008,02,18,22,21,0.70
2008,02,18,22,22,0.70
2008,02,18,22,23,0.70
2008,02,18,22,24,0.60
2008,02,18,22,25,0.60
2008,02,18,22,26,0.60
2008,02,18,22,27,0.60
2008,02,18,22,28,0.60
2008,02,18,22,29,0.60
2008,02,18,22,30,0.60
2008,02,18,22,31,0.60
2008,02,18,22,32,0.60
2008,02,18,22,33,0.60
2008,02,18,22,34,0.60
2008,02,18,22,35,0.50
2008,02,18,22,36,0.50
2008,02,18,22,37,0.50
2008,02,18,22,38,0.50
2008,02,18,22,39,0.50
2008,02,18,22,40,0.50
2008,02,18,22,41,0.50
2008,02,18,22,42,0.50
2008,02,18,22,43,0.50
2008,02,18,22,44,0.50
2008,02,18,22,45,0.50
2008,02,18,22,46,0.50
2008,02,18,22,47,0.50
2008,02,18,22,48,0.50
2008,02,18,22,49,0.50
2008,02,18,22,50,0.50
2008,02,18,22,51,0.50
2008,02,18,22,52,0.50
2008,02,18,22,53,0.50
2008,02,18,22,54,0.50
2008,02,18,22,55,0.50
2008,02,18,22,56,0.40
2008,02,18,22,57,0.40
2008,02,18,22,58,0.40
2008,02,18,22,59,0.40
2008,02,18,23,00,0.40
2008,02,18,23,01,0.40
2008,02,18,23,02,0.40
2008,02,18,23,03,0.40
2008,02,18,23,04,0.40
2008,02,18,23,05,0.40
2008,02,18,23,06,0.40
2008,02,18,23,07,0.40
2008,02,18,23,08,0.30
2008,02,18,23,09,0.30
2008,02,18,23,10,0.30
2008,02,18,23,11,0.30
2008,02,18,23,12,0.20
2008,02,18,23,13,0.20
2008,02,18,23,14,0.20
2008,02,18,23,15,0.20
2008,02,18,23,16,0.20
2008,02,18,23,17,0.10
2008,02,18,23,18,0.10
2008,02,18,23,19,0.10
2008,02,18,23,20,0.10
2008,02,18,23,21,0.10
2008,02,18,23,22,0.10
2008,02,18,23,23,0.10
2008,02,18,23,24,0.10
2008,02,18,23,25,0.10
2008,02,18,23,26,0.10
2008,02,18,23,27,0.10
2008,02,18,23,28,0.10
2008,02,18,23,29,0.10
2008,02,18,23,30,0.10
2008,02,18,23,31,0.10
2008,02,18,23,32,0.10
2008,02,18,23,33,0.00
2008,02,18,23,34,-0.10
2008,02,18,23,35,-0.10
2008,02,18,23,36,-0.10
2008,02,18,23,37,-0.10
2008,02,18,23,38,-0.10
2008,02,18,23,39,-0.10
2008,02,18,23,40,-0.10
2008,02,18,23,41,-0.10
2008,02,18,23,42,-0.10
2008,02,18,23,43,-0.10
2008,02,18,23,44,-0.10
2008,02,18,23,45,-0.10
2008,02,18,23,46,-0.10
2008,02,18,23,47,-0.10
2008,02,18,23,48,-0.10
2008,02,18,23,49,-0.10
2008,02,18,23,50,-0.10
2008,02,18,23,51,-0.10
2008,02,18,23,52,-0.10
2008,02,18,23,53,-0.10
2008,02,18,23,54,-0.10
2008,02,18,23,55,-0.10
2008,02,18,23,56,-0.10
2008,02,18,23,57,-0.10
2008,02,18,23,58,-0.10
2008,02,18,23,59,-0.10
